GFSSE_250_rhum_099.txt.gz
RH
12 11 10 9 9 8 9 9 9 10 10 9 9 8 9 9 9 9 10 11 12 13 14 16 16 15 13 13 14 16 20 22 20 19 19 22 20 20 20 19 18 18 18
14 13 12 10 10 10 10 10 10 10 10 10 10 9 9 9 9 9 8 9 10 12 13 16 17 18 18 20 26 24 28 29 25 23 23 20 22 20 20 22 26 23 18
19 17 14 12 12 12 12 12 12 12 12 11 11 11 9 9 10 12 11 10 9 9 11 12 12 14 21 22 24 25 25 25 24 22 22 22 24 26 22 23 21 21 23
18 17 17 15 14 14 13 15 16 15 14 13 13 14 15 14 12 11 11 11 10 10 10 10 12 16 17 17 18 20 21 23 25 25 25 26 26 26 26 26 27 26 31
18 17 16 15 14 14 16 16 18 17 17 16 16 16 16 15 12 12 23 20 34 41 37 36 18 16 22 29 32 36 37 41 37 36 34 37 38 33 35 31 33 32 30
21 19 17 16 15 16 16 16 17 21 21 22 24 20 18 15 19 51 99 91 79 39 34 34 35 28 22 28 41 49 56 58 57 49 46 42 41 37 35 34 35 34 36
31 23 18 17 16 17 19 20 18 22 25 20 26 34 34 31 96 90 94 99 86 88 78 79 70 54 50 30 37 44 45 42 40 36 37 33 30 37 50 51 50 56 60
36 28 24 23 17 16 20 22 22 23 26 23 29 58 65 22 61 65 79 89 100 98 90 94 96 95 79 42 29 39 39 27 24 25 26 38 54 74 90 89 79 69 64
36 33 26 23 21 20 22 23 25 25 26 22 28 43 51 60 32 39 69 58 82 100 87 78 100 100 100 94 59 42 36 26 24 32 66 76 94 87 93 78 86 91 84
35 42 37 29 22 23 24 23 27 29 28 24 24 56 59 69 66 44 89 82 79 100 98 90 90 100 100 95 83 76 55 51 60 76 86 89 79 88 93 99 100 85 96
39 41 42 38 26 26 26 25 27 33 29 24 36 33 43 56 56 63 70 100 97 100 100 98 99 100 100 100 100 100 100 94 83 72 74 75 84 93 88 100 95 95 100
40 39 48 40 34 30 32 31 29 40 31 28 28 24 17 16 32 42 32 82 100 100 100 86 92 100 97 78 72 62 58 54 55 67 66 44 47 76 80 96 100 92 100
55 48 56 46 44 36 41 37 39 49 27 21 22 20 29 21 18 30 40 69 98 100 100 78 89 90 67 63 57 56 46 47 50 45 44 43 46 55 88 100 77 95 95
44 43 37 48 45 39 43 41 56 44 24 18 16 15 22 19 16 28 34 100 100 100 100 93 92 68 68 61 54 54 59 58 59 49 48 43 51 72 94 72 79 68 80
42 39 40 43 41 40 45 52 80 34 22 18 17 15 16 17 19 38 49 57 100 100 100 99 88 79 83 83 63 60 64 58 67 67 46 50 62 70 76 74 87 94 100
41 37 40 45 38 38 44 64 85 30 21 19 16 17 18 23 43 56 58 69 96 100 100 100 79 82 100 81 69 58 56 56 65 67 63 64 58 82 87 84 82 100 100
48 42 38 46 36 41 41 81 71 30 22 21 15 17 18 45 67 75 100 99 100 100 100 100 92 100 100 84 88 54 56 67 79 70 92 65 49 70 90 79 82 80 77
61 53 40 45 39 46 45 97 55 26 23 20 16 16 17 84 79 83 100 100 100 100 100 100 100 79 96 100 100 100 73 62 58 72 91 47 41 80 82 93 81 77 70
65 56 44 46 41 47 52 95 43 26 25 17 16 18 17 98 81 81 100 100 100 100 100 100 100 100 78 100 100 89 88 92 51 63 88 69 64 53 62 48 81 86 74
61 51 44 46 43 46 67 88 35 28 25 20 17 16 16 90 98 88 100 100 100 100 100 100 100 100 100 100 100 72 86 65 44 79 100 92 70 47 38 35 40 54 93
67 50 44 47 40 46 78 80 32 29 26 22 19 21 16 58 100 99 100 100 100 93 89 100 100 100 100 82 100 100 54 72 79 100 100 100 73 55 35 35 38 38 84
65 52 43 46 38 48 87 57 31 31 27 25 21 23 24 25 100 100 96 100 100 100 100 100 75 70 79 100 100 74 100 99 100 100 100 75 57 58 64 55 38 27 77
70 50 37 43 34 55 94 38 33 29 27 26 22 21 28 26 98 100 100 100 100 100 97 100 100 100 100 95 100 100 100 100 92 93 87 78 77 64 56 50 48 35 46
55 35 32 36 37 77 93 36 34 29 30 31 28 20 24 33 36 100 99 100 100 100 100 100 100 100 100 100 100 100 100 100 81 94 96 82 47 55 48 96 66 58 72
51 29 38 33 45 95 81 36 35 29 34 35 33 22 18 25 33 81 100 97 100 100 100 100 100 100 100 100 100 99 92 100 100 100 83 59 66 73 81 100 86 71 81
47 37 37 39 89 100 80 36 36 33 34 37 35 29 21 18 25 36 95 100 100 100 100 100 100 100 100 100 100 100 100 99 86 66 76 78 100 100 98 99 100 100 99

GFSSE_250_rhum_102.txt.gz
RH
14 13 12 12 12 11 10 9 9 9 10 11 10 11 11 10 9 8 8 8 8 8 8 10 12 13 14 13 14 14 17 19 22 29 30 34 36 41 43 42 39 26 23
19 18 16 15 14 13 13 11 11 10 10 11 12 12 12 12 12 10 9 8 8 8 8 8 10 12 14 16 17 17 19 20 23 24 20 28 29 33 34 40 35 28 26
24 22 20 18 17 15 13 12 11 12 13 14 13 13 13 12 13 12 12 10 9 8 8 8 8 9 11 13 16 18 21 23 22 20 25 37 37 31 31 35 31 27 25
25 24 22 21 19 18 16 14 13 13 13 14 15 16 15 14 14 13 12 11 12 11 11 14 27 21 12 12 16 23 23 21 23 22 30 41 37 32 29 28 27 26 26
27 25 23 24 22 18 17 15 14 14 15 14 17 20 19 20 20 34 33 37 75 56 79 55 53 52 47 28 20 23 32 37 39 36 41 40 38 33 31 33 35 37 39
30 26 26 24 22 18 17 16 15 16 18 16 20 23 24 21 24 68 100 75 100 84 87 100 87 64 69 72 60 30 29 46 50 58 59 61 54 50 52 53 56 46 41
30 29 30 31 26 22 19 17 16 16 21 19 20 22 25 58 82 100 100 100 100 94 77 93 95 81 74 68 65 44 30 28 37 50 58 57 57 55 52 46 39 36 53
33 32 36 40 29 22 20 19 17 19 22 22 21 56 62 35 70 94 63 98 100 78 84 98 99 94 100 100 99 93 58 34 36 42 45 43 40 39 33 31 55 96 92
43 52 52 39 30 25 24 22 20 19 22 25 24 26 42 33 25 31 42 100 100 69 75 100 90 100 94 100 100 100 89 48 32 43 41 27 26 27 35 92 100 98 91
56 50 44 34 29 27 24 23 20 22 26 26 28 32 42 55 54 35 36 44 99 91 98 100 100 90 100 94 100 100 100 82 40 39 29 25 28 58 100 98 98 100 100
55 41 31 32 29 28 28 26 24 24 30 28 34 40 42 59 45 34 42 49 48 100 100 100 100 100 100 98 100 96 73 62 56 48 39 57 90 100 100 100 100 100 100
46 37 34 31 29 28 32 28 29 28 32 30 42 45 40 50 52 30 35 60 84 86 100 100 100 100 98 100 88 100 85 82 78 95 100 100 89 93 92 82 88 99 85
46 39 36 32 31 30 32 33 32 34 33 30 44 39 38 41 39 17 24 45 53 69 100 100 100 100 89 86 99 100 90 75 95 80 74 63 63 47 50 61 73 81 86
42 39 39 34 36 32 37 37 33 37 36 38 54 27 20 21 14 13 15 19 40 42 100 100 100 100 100 81 81 74 61 55 54 52 48 44 43 42 46 48 71 92 92
47 40 39 35 43 39 42 41 36 37 36 50 52 24 20 18 14 14 14 18 27 46 100 100 100 100 96 95 80 67 63 60 63 59 48 44 50 43 53 65 78 80 71
51 40 42 34 44 41 47 41 39 37 35 55 49 22 20 18 14 15 16 17 24 61 100 100 100 100 92 90 80 72 74 73 68 62 58 60 73 46 50 69 90 81 98
51 46 41 36 42 38 38 42 41 37 36 64 39 22 21 15 14 18 18 34 50 65 100 100 100 99 100 96 79 72 80 66 61 72 76 82 83 64 54 87 90 91 91
59 55 53 47 44 38 42 43 46 39 42 67 29 24 17 14 15 17 21 67 74 95 98 100 100 100 100 91 71 82 77 63 52 57 58 85 96 91 56 70 72 68 76
61 52 47 42 37 36 46 46 48 40 53 66 24 23 17 13 16 18 56 81 99 100 99 100 100 100 93 96 86 95 79 98 81 56 48 37 58 68 57 63 53 50 63
52 46 50 44 40 38 48 46 49 40 62 52 25 22 18 12 17 19 86 76 100 100 100 100 100 100 100 99 99 100 100 99 57 52 48 38 61 100 95 73 52 42 33
49 56 69 52 43 40 62 51 51 41 69 40 26 24 19 14 17 19 100 87 100 100 100 100 100 100 99 90 99 84 100 100 88 69 47 31 52 92 100 73 54 56 38
84 81 56 49 42 68 64 50 52 42 79 35 28 25 23 16 17 18 100 93 100 100 100 100 100 100 100 100 100 92 99 100 99 76 48 46 100 100 100 74 70 60 42
99 70 53 47 42 68 63 48 54 44 82 30 30 27 26 18 18 23 100 100 96 100 100 100 100 100 100 100 100 100 97 98 100 46 93 99 57 81 81 87 84 53 32
85 54 56 50 48 66 60 50 49 46 65 30 29 31 26 19 19 23 100 100 84 100 100 100 100 100 100 100 100 100 100 99 100 96 100 100 79 80 75 51 59 49 34
60 58 59 49 46 62 58 46 45 60 46 30 30 34 27 19 20 25 88 100 100 94 100 100 100 100 100 100 100 100 96 99 98 78 100 100 98 90 72 75 62 41 68
50 57 51 45 57 55 52 45 53 78 35 31 31 35 33 21 19 23 28 100 100 93 99 100 100 100 100 100 100 100 96 86 77 100 92 96 96 75 52 53 55 74 91

GFSSE_250_rhum_105.txt.gz
RH
16 16 16 16 14 14 15 14 14 12 11 10 10 9 9 9 9 10 10 10 9 8 7 8 8 9 10 12 26 30 23 21 21 21 21 23 25 32 36 41 60 62 48
22 23 22 20 19 17 17 16 15 14 13 11 11 11 11 10 10 10 10 10 11 11 10 9 8 8 9 9 9 10 13 17 19 20 21 20 26 27 27 39 47 39 40
26 26 25 25 22 21 20 19 17 16 14 13 12 11 13 13 13 12 13 12 11 10 11 10 10 10 11 12 18 12 10 11 12 16 28 44 47 48 45 39 40 44 52
28 28 28 26 24 23 22 20 18 16 15 13 12 12 12 16 14 14 25 23 17 30 34 27 21 19 20 25 30 35 18 15 18 25 30 71 84 80 74 81 77 82 70
29 31 30 29 26 26 24 20 20 18 17 15 13 13 14 14 17 34 24 41 46 78 53 98 87 99 85 58 59 66 58 41 36 24 64 79 82 97 100 100 99 88 81
30 34 33 28 29 29 24 24 22 19 17 16 14 14 16 18 35 61 31 38 99 100 100 100 100 100 100 100 98 71 85 66 53 43 43 82 88 95 100 87 73 59 61
33 36 31 30 31 31 27 28 21 18 17 18 17 17 16 25 61 100 76 82 100 96 100 99 100 100 100 100 100 85 80 84 76 62 86 72 74 76 74 73 74 68 62
34 36 31 32 32 34 29 26 22 19 19 18 20 19 46 94 91 95 95 74 100 100 93 100 100 100 100 100 95 84 97 100 74 63 39 33 35 52 65 59 61 61 52
38 34 33 35 43 38 32 26 23 20 20 19 19 19 20 26 25 30 37 34 68 95 100 83 98 69 99 100 100 94 100 100 98 81 69 47 36 45 45 43 44 37 36
44 43 54 54 45 40 34 28 24 22 21 23 27 26 26 26 30 34 38 58 37 32 98 73 80 100 100 100 100 98 80 80 88 71 89 51 40 54 38 32 28 36 100
65 86 74 64 51 40 35 29 25 24 24 26 27 29 34 30 35 66 60 52 43 34 44 100 94 100 100 100 100 100 93 74 61 70 73 100 51 43 27 26 51 100 100
53 53 60 66 59 48 38 32 26 30 27 29 31 43 47 31 32 43 51 55 56 38 71 80 100 100 100 100 100 92 84 77 56 76 79 71 39 30 45 90 100 100 100
54 58 52 64 57 49 41 35 31 29 28 26 31 41 72 69 75 73 62 58 51 32 32 86 100 100 100 100 100 90 81 81 84 65 70 63 77 99 100 93 84 77 76
71 60 50 61 57 54 44 37 31 30 27 29 31 32 58 52 48 54 51 52 53 45 40 70 100 100 100 100 100 91 86 94 100 73 100 100 78 76 76 70 55 66 73
68 65 60 67 62 53 43 38 34 33 34 33 33 33 34 52 40 35 30 33 14 21 22 71 98 100 100 100 100 100 93 90 83 66 70 59 45 46 50 59 70 72 72
88 71 68 60 53 49 42 38 33 30 33 37 37 36 36 50 42 27 20 15 15 17 37 51 51 100 100 100 100 100 97 76 65 68 67 54 51 58 48 48 53 78 98
100 76 52 44 44 45 44 40 35 36 35 35 39 39 38 61 30 22 18 26 23 36 28 75 65 100 100 100 100 100 96 75 78 80 73 67 76 75 68 63 51 71 94
100 59 58 54 57 49 47 40 33 38 39 45 46 43 43 64 27 20 16 19 20 21 34 51 100 100 100 100 93 100 100 82 88 82 79 84 81 74 82 78 58 66 51
99 66 72 71 62 56 44 38 42 39 38 43 49 44 48 60 23 19 14 18 20 20 46 72 99 100 100 100 100 100 100 95 94 88 80 64 51 44 44 67 63 69 59
75 76 72 80 66 68 54 45 57 48 40 46 52 48 57 51 21 17 15 13 16 31 65 97 96 100 100 100 99 100 100 100 99 99 86 59 47 41 34 79 100 87 58
83 77 86 69 95 78 47 60 66 50 43 47 54 50 66 42 20 17 14 14 16 62 93 100 100 100 100 100 100 100 85 100 100 100 100 65 43 31 31 52 100 100 69
99 100 82 91 75 52 72 96 69 53 43 48 56 50 74 38 22 18 14 15 22 100 91 100 100 100 100 100 100 92 98 100 100 100 100 60 70 53 31 48 93 100 90
97 90 100 100 100 100 82 72 66 54 42 44 52 48 74 30 26 21 14 16 50 100 96 100 100 100 100 100 100 92 100 100 100 100 100 68 77 47 29 41 55 96 100
77 77 67 67 67 70 68 72 58 49 42 46 47 46 70 27 30 20 15 18 45 100 92 100 100 100 100 100 100 100 100 100 100 63 70 79 79 46 79 81 45 48 69
85 84 94 66 79 77 66 57 56 50 42 46 45 46 51 27 32 21 16 22 49 100 100 100 100 100 100 100 100 100 100 100 100 100 100 100 99 84 61 100 88 89 71
88 95 89 66 65 57 66 59 52 51 42 46 40 60 30 30 37 26 18 18 42 100 96 100 100 100 100 100 100 100 100 100 100 100 100 100 100 96 48 97 100 100 98

GFSSE_250_rhum_111.txt.gz
RH
15 14 15 13 14 13 14 15 15 15 15 16 15 14 13 13 12 12 11 11 11 10 10 9 9 9 10 12 10 10 10 15 23 34 41 50 61 90 87 85 87 77 68
17 19 20 19 18 19 19 20 20 18 18 18 18 17 17 16 14 12 12 11 11 11 12 12 11 10 11 11 10 10 12 12 13 22 37 38 49 52 66 71 75 71 58
25 27 27 27 25 29 27 27 23 20 20 19 20 19 20 20 16 13 12 12 13 13 14 17 19 31 39 35 28 17 15 14 12 13 22 27 38 42 42 30 27 25 26
36 33 35 40 42 41 37 31 25 23 21 20 22 25 26 21 16 13 12 11 15 25 28 25 20 18 32 62 57 46 56 29 16 16 21 21 23 28 38 44 46 51 47
47 43 42 68 72 58 50 34 28 24 21 23 24 29 28 22 16 14 15 13 13 20 30 28 40 30 43 64 87 99 100 100 100 68 30 69 90 74 79 65 80 86 93
62 56 49 93 98 73 52 40 31 25 23 25 26 34 31 24 19 16 18 20 20 19 22 29 52 43 76 89 100 100 100 85 93 100 98 78 81 74 84 95 87 91 99
72 61 70 95 100 74 52 49 33 25 25 27 30 34 34 30 24 19 21 19 22 36 28 29 65 94 100 100 100 100 96 80 96 94 86 84 91 87 100 95 95 90 92
82 69 61 70 91 77 64 52 38 26 26 30 31 37 34 33 26 22 20 27 27 22 60 70 79 100 100 100 100 100 96 85 89 82 67 83 95 92 85 84 84 84 92
79 77 63 78 100 100 67 54 41 32 27 29 32 35 39 36 31 24 23 23 44 27 28 32 45 70 92 100 100 100 100 73 62 69 59 100 85 69 77 79 73 81 62
89 82 69 79 100 100 88 62 44 39 35 32 38 38 43 38 29 27 24 24 39 40 31 31 26 32 82 100 100 100 98 82 81 70 74 92 88 67 81 78 69 94 81
100 96 95 100 100 100 99 68 50 46 44 37 39 39 36 34 30 27 26 23 46 60 45 36 50 50 68 100 100 100 100 98 95 84 62 74 81 71 56 70 90 100 100
99 86 85 100 100 100 100 75 59 48 46 44 40 37 31 34 35 29 25 26 26 83 85 42 41 66 68 67 59 100 100 100 100 87 65 63 60 46 59 94 100 100 100
100 92 79 87 100 100 100 90 70 50 50 45 44 40 35 32 34 31 29 28 50 88 97 79 72 80 79 58 49 81 93 100 100 93 71 61 75 55 76 98 100 97 51
100 100 79 100 100 100 100 100 78 58 59 49 51 42 38 37 34 35 34 34 60 76 98 83 70 66 65 63 59 78 75 100 100 99 78 81 63 77 100 83 78 95 100
100 100 95 94 98 100 100 100 89 69 66 63 46 39 40 40 36 32 47 34 56 76 84 75 46 55 34 38 49 80 100 100 100 100 100 90 56 71 100 100 99 94 100
88 100 96 91 73 100 100 100 95 92 80 58 53 51 43 38 36 44 43 37 32 40 79 74 60 41 22 21 26 87 100 100 100 100 100 92 56 93 100 98 99 57 67
74 94 100 73 61 97 100 100 100 100 95 79 65 53 44 42 37 64 41 44 38 36 55 62 43 26 25 22 34 59 100 100 100 100 100 76 83 92 86 100 60 46 61
100 96 100 99 100 100 100 100 100 100 100 92 72 48 52 48 49 59 42 50 42 39 50 47 38 28 26 39 53 62 100 100 100 100 100 94 100 88 82 58 58 64 66
100 100 84 94 100 100 100 100 100 100 100 100 82 64 60 52 61 41 45 46 44 43 52 48 30 21 19 27 73 94 100 100 100 100 74 72 100 96 70 71 80 82 54
100 98 97 71 98 100 100 98 100 100 100 100 83 73 65 62 52 44 47 43 44 44 47 47 26 18 15 21 84 100 100 100 100 100 98 100 100 100 96 94 92 68 58
97 98 81 79 70 100 100 100 100 78 100 100 100 71 71 58 42 50 48 46 44 45 46 46 24 16 16 24 100 100 100 100 96 100 79 100 100 100 100 100 92 81 55
70 86 100 100 96 100 100 63 73 99 100 100 94 86 74 54 40 58 52 52 44 44 48 48 23 15 17 25 100 100 100 85 100 100 100 100 100 100 100 100 100 99 65
55 56 76 89 100 100 100 100 93 98 99 93 95 88 77 54 57 57 55 51 46 43 50 44 22 15 19 36 95 100 100 100 100 73 100 97 100 100 100 100 100 98 94
70 79 57 57 74 94 100 100 96 98 100 100 94 78 73 71 68 61 60 52 48 45 50 40 21 15 28 66 100 100 100 100 100 100 100 100 100 100 100 100 100 100 100
63 99 100 100 100 100 100 100 100 100 98 97 84 70 75 67 58 65 55 55 52 48 50 31 21 18 73 99 100 100 100 100 100 100 100 100 100 100 100 100 100 100 100
74 75 100 100 100 100 100 100 100 100 100 92 73 70 75 63 59 59 51 58 54 53 46 25 19 18 83 100 97 100 100 100 100 100 100 100 100 100 100 100 100 100 100

GFSSE_250_rhum_114.txt.gz
RH
13 14 14 15 14 13 12 12 12 11 12 12 15 15 13 14 14 13 12 11 12 11 12 12 11 10 10 10 11 10 11 14 17 13 15 28 52 44 45 63 74 70 79
18 18 17 18 17 18 17 17 18 16 19 19 20 18 17 18 20 19 17 16 13 11 11 11 11 11 13 19 24 15 10 10 11 14 20 27 37 51 61 59 67 81 79
21 22 24 23 22 24 21 23 27 26 30 26 23 20 18 24 24 22 19 17 15 13 12 11 12 15 15 16 23 34 41 30 21 17 15 14 20 36 41 69 80 81 98
30 31 31 30 30 30 28 42 54 48 33 33 26 21 20 26 26 25 22 17 16 15 14 14 13 15 24 22 22 22 56 78 56 24 18 36 31 20 27 32 46 52 47
47 46 40 49 45 34 34 56 86 59 44 40 29 22 25 29 27 28 24 20 16 17 17 18 19 17 27 34 50 42 47 69 74 50 38 31 63 62 41 39 43 41 44
64 48 83 90 74 44 41 48 68 43 45 44 31 25 26 29 31 32 28 20 17 17 21 22 24 21 30 63 81 73 60 64 99 96 75 94 78 94 88 80 81 83 75
65 99 100 100 66 53 56 45 49 82 47 44 36 27 26 29 34 36 29 22 19 18 18 31 27 28 34 81 100 100 96 93 95 100 91 90 89 91 100 97 87 100 99
78 79 78 93 75 66 63 54 79 84 62 45 40 37 29 33 36 32 30 24 23 20 22 25 34 28 54 98 100 100 100 100 74 95 88 83 87 91 100 100 96 84 80
83 75 98 100 97 69 63 56 83 99 79 46 46 43 40 39 39 29 27 27 25 23 31 42 42 31 30 56 74 100 100 100 100 89 90 70 95 99 57 89 85 82 85
92 90 94 100 99 82 92 57 99 100 91 49 50 46 42 46 40 34 35 32 31 26 24 38 54 37 28 31 71 97 100 100 100 89 79 78 95 92 66 77 76 72 74
82 99 95 82 92 97 85 66 98 100 99 57 51 47 46 52 46 39 39 33 32 27 25 30 48 53 34 51 84 100 100 100 100 99 77 89 91 91 95 80 65 60 87
81 77 100 100 100 90 96 82 100 100 100 74 58 52 49 48 53 38 41 36 37 32 30 32 54 83 55 50 78 91 100 100 100 100 100 94 97 92 84 78 66 90 97
100 100 100 100 100 94 100 82 85 100 100 93 60 56 50 55 49 43 41 34 42 36 30 34 52 83 93 88 77 92 76 86 99 100 100 100 89 76 73 57 85 100 100
100 100 100 100 100 85 100 91 100 100 100 93 81 70 54 66 52 51 45 39 41 46 35 39 48 78 89 88 92 85 72 67 66 77 100 100 100 87 67 55 87 100 97
100 100 96 100 100 93 84 80 100 100 100 100 91 80 54 73 65 57 52 48 43 46 36 37 38 65 82 79 62 66 30 48 60 80 100 100 94 82 67 61 71 100 100
83 73 77 84 98 100 93 99 100 100 98 100 99 80 67 84 78 72 60 57 58 42 38 36 36 36 66 65 58 32 28 29 31 97 100 100 93 80 78 67 88 100 100
45 100 99 98 80 87 78 67 82 89 100 100 100 90 81 99 88 82 75 64 55 41 43 36 40 39 58 61 41 28 24 33 46 100 100 100 100 100 63 63 82 100 100
38 56 100 100 90 86 100 96 100 100 100 100 100 100 100 100 85 96 88 77 51 39 49 41 40 45 48 46 30 23 21 33 69 100 100 87 87 87 67 98 100 100 85
41 43 50 63 80 100 90 87 92 100 100 100 100 100 100 96 89 100 94 73 54 43 46 46 38 42 47 45 24 17 19 57 73 100 100 98 90 89 93 100 95 94 59
54 51 49 53 78 96 99 74 53 80 100 100 100 100 100 78 92 100 94 73 55 49 47 46 38 42 49 43 24 18 19 85 79 100 100 100 90 62 70 100 96 64 74
60 50 44 50 98 100 100 100 100 60 98 100 100 100 99 87 97 100 90 72 58 60 43 47 39 39 48 43 22 17 22 99 100 100 100 96 89 80 100 100 78 88 100
43 43 45 46 75 100 100 100 100 75 83 95 61 87 85 97 79 100 77 72 60 56 49 50 38 38 46 39 19 16 28 100 100 100 100 98 86 100 100 100 100 100 98
40 39 48 53 58 91 100 100 100 100 100 100 100 99 80 88 100 100 88 70 60 53 47 46 40 37 46 40 18 15 51 100 100 100 100 100 100 92 100 100 100 100 100
55 53 60 60 58 71 73 88 88 65 64 82 95 84 94 100 100 100 84 63 54 58 56 48 41 38 43 35 16 17 74 100 100 100 100 100 100 81 100 100 100 100 100
77 80 66 66 62 63 72 91 89 70 50 57 98 100 100 100 100 93 78 52 61 75 70 50 41 40 44 25 16 26 89 100 100 100 99 100 100 100 100 100 100 100 100
100 100 82 69 62 65 75 94 100 100 100 97 100 100 100 100 96 90 85 66 82 73 75 53 42 45 43 23 17 57 88 100 100 100 96 100 80 93 94 100 100 100 88

GFSSE_250_rhum_117.txt.gz
RH
17 16 14 14 13 11 12 12 11 11 12 11 10 11 9 11 13 14 14 13 12 12 12 11 10 11 11 12 15 13 19 29 30 17 14 20 29 31 34 49 56 60 66
19 17 17 14 14 14 15 14 13 14 14 14 15 14 14 16 18 17 16 16 17 17 16 15 13 11 10 10 10 14 15 18 25 23 17 17 19 26 25 39 48 52 68
21 24 20 19 19 18 18 19 17 15 17 20 22 22 20 21 21 20 20 22 22 20 16 15 14 13 12 12 10 14 18 17 25 31 29 19 20 16 17 27 44 74 79
37 32 30 27 24 21 21 24 20 18 19 30 30 25 27 26 22 24 26 27 25 20 16 16 15 14 15 16 16 18 22 24 22 22 41 59 60 44 31 30 42 39 56
48 43 40 34 34 29 34 39 33 30 24 32 32 32 37 29 24 26 28 29 25 23 21 17 20 16 20 20 21 24 37 37 35 36 24 62 74 57 70 63 36 29 32
61 52 46 44 41 44 74 75 50 31 27 35 51 42 41 36 32 26 31 34 26 23 18 16 17 16 18 33 28 30 64 55 61 55 58 73 86 77 68 92 100 87 79
58 57 81 68 48 54 61 64 51 44 34 45 66 62 42 40 39 29 36 37 29 30 21 19 20 19 29 33 39 53 83 83 80 77 97 90 88 95 100 100 100 100 100
70 67 99 89 58 50 48 70 81 54 42 50 90 78 43 40 40 37 42 38 34 35 27 21 21 20 28 34 36 80 99 92 80 92 100 86 100 95 100 100 100 100 99
83 100 100 79 72 82 76 95 98 66 71 42 80 90 50 42 43 40 42 39 41 38 29 25 20 20 20 29 37 45 73 94 100 92 88 68 100 98 100 99 78 100 92
100 100 100 89 90 80 86 78 91 100 59 64 62 93 82 50 49 41 39 39 45 38 32 27 26 22 25 60 59 83 89 100 100 100 97 80 100 100 100 84 71 100 100
100 100 100 100 85 63 73 88 80 87 71 70 73 77 95 65 52 50 38 40 54 50 42 35 32 28 29 37 54 62 89 99 90 100 100 82 100 100 97 83 71 86 94
100 100 100 100 98 68 64 97 100 94 84 78 60 83 98 91 61 60 44 52 69 52 50 47 35 28 27 38 59 48 77 99 100 100 100 93 100 97 98 100 75 86 99
98 100 100 100 100 92 63 96 100 100 94 79 66 95 100 83 77 75 54 63 66 63 60 56 36 30 27 32 55 69 61 90 100 100 100 100 100 99 100 100 100 96 100
100 99 100 100 89 86 87 94 100 100 98 98 67 64 100 98 94 88 66 73 81 71 66 59 38 30 31 32 43 76 90 98 90 93 100 100 100 100 100 100 100 99 88
84 64 58 53 47 96 100 100 99 96 100 93 71 88 75 99 100 100 79 83 91 81 73 58 41 34 34 30 32 68 83 90 82 68 68 82 100 100 100 100 92 92 77
47 54 62 46 34 55 76 82 86 83 95 91 86 76 59 100 100 100 93 97 100 85 83 66 54 40 33 32 32 47 80 76 62 52 38 56 85 100 100 100 100 80 72
40 51 57 45 39 66 80 86 96 92 100 100 88 71 86 100 100 100 100 100 100 92 84 68 60 48 39 34 33 40 70 67 36 34 29 34 84 100 100 100 86 79 78
43 55 56 45 41 58 92 100 86 75 78 83 88 100 99 98 100 100 100 100 99 100 85 71 60 56 49 35 34 37 49 44 25 22 26 37 100 100 100 98 63 91 95
52 56 46 46 47 44 54 76 81 78 86 100 100 100 100 100 100 100 100 100 100 100 91 72 61 52 46 34 36 35 45 39 19 17 24 45 100 100 99 79 84 92 100
63 49 60 53 48 44 43 44 52 65 66 82 91 83 94 100 100 90 63 97 100 100 97 78 67 52 46 39 37 37 45 40 20 16 24 60 100 100 97 74 80 94 99
69 58 50 48 47 49 45 49 69 80 60 83 94 94 100 89 63 54 65 100 100 100 97 83 59 50 52 42 40 36 41 42 20 16 22 73 100 100 96 86 77 78 100
65 72 54 46 51 61 52 56 60 100 70 57 61 82 95 84 82 84 100 90 98 100 97 76 51 59 56 46 41 38 42 38 19 17 34 63 100 100 100 71 70 100 100
70 80 66 47 50 74 66 59 62 93 85 80 100 100 100 99 93 96 92 87 98 100 97 77 51 66 63 52 43 38 38 34 17 17 46 63 100 100 100 78 100 100 100
60 79 73 58 56 66 65 67 76 78 65 44 55 82 100 91 65 58 88 100 100 100 90 72 57 83 60 56 43 39 38 26 17 18 39 83 78 100 100 100 100 100 100
49 87 92 74 62 67 69 75 74 79 94 93 61 96 100 99 77 76 100 100 100 93 87 73 70 72 61 51 43 43 40 20 20 28 51 97 100 100 92 100 100 100 100
79 100 100 85 72 72 63 67 69 74 85 100 100 92 98 86 81 100 100 100 100 96 99 88 76 72 68 51 42 45 37 22 31 62 90 100 100 100 100 100 100 100 100

GFSSE_250_rhum_120.txt.gz
RH
20 21 20 19 18 18 16 15 13 11 10 11 11 11 12 11 12 12 11 10 10 10 10 9 10 10 11 11 12 12 12 10 13 20 39 38 50 35 17 15 34 47 65
20 20 19 18 17 16 15 14 13 14 14 14 14 14 12 14 17 17 18 13 15 13 13 13 13 14 12 11 11 12 11 11 11 14 35 44 42 35 26 28 28 31 39
27 22 20 21 21 20 17 15 19 19 20 17 19 17 19 21 18 24 18 21 20 19 19 18 16 14 14 14 15 13 12 14 13 13 16 23 23 35 40 25 22 22 32
32 29 33 35 31 29 24 24 24 20 24 24 24 23 26 20 24 24 24 24 24 22 22 22 18 15 15 14 14 14 16 17 17 17 22 25 62 55 93 84 59 41 36
34 34 44 60 50 37 40 32 28 27 38 29 29 26 23 32 33 32 31 25 27 24 24 25 19 15 16 16 16 17 19 25 23 26 30 27 34 45 76 79 73 76 76
39 39 44 59 60 47 46 48 47 31 33 35 30 26 34 45 41 38 38 30 30 28 30 29 21 18 17 17 18 24 27 31 34 45 40 47 48 59 65 99 100 100 100
50 46 58 59 58 56 47 56 66 45 35 37 34 30 46 75 54 43 39 34 32 34 33 34 32 26 21 18 17 19 25 34 48 71 59 99 70 93 100 100 100 100 100
59 55 58 54 62 58 54 72 73 55 41 50 49 38 46 66 63 56 45 38 32 38 36 42 38 40 31 20 19 21 25 37 65 72 83 78 83 100 100 100 100 100 100
52 58 57 58 58 64 66 79 76 80 54 49 62 53 45 58 69 78 63 48 32 33 42 49 50 45 34 23 21 46 48 37 48 78 66 86 100 100 100 100 100 73 82
82 90 78 71 71 80 76 77 100 94 64 53 48 69 51 50 53 73 84 57 37 35 49 50 54 55 35 26 21 28 62 59 50 47 67 93 99 100 100 100 100 78 59
75 89 100 95 80 99 100 100 100 98 73 59 68 90 72 49 60 78 95 84 51 50 53 53 60 59 38 30 22 23 61 60 84 68 80 96 79 100 100 100 100 75 72
97 87 100 100 96 100 100 100 95 94 81 70 69 66 84 56 65 82 95 76 75 62 60 65 66 67 50 37 26 25 43 68 62 90 75 100 86 100 100 100 97 70 89
80 100 100 95 98 100 100 100 66 74 75 72 74 91 84 61 60 78 100 96 91 76 71 73 71 72 60 44 33 25 26 82 60 86 89 95 93 87 100 100 82 78 98
65 76 100 100 100 97 79 71 51 66 65 66 93 100 90 72 63 63 98 99 100 95 80 86 77 75 65 51 40 29 26 42 95 76 100 96 91 74 100 100 100 100 69
44 61 76 98 100 100 94 93 81 71 65 92 100 96 77 72 64 63 78 99 100 100 93 85 90 77 70 52 41 36 27 27 70 100 98 100 100 74 100 100 100 100 100
43 47 58 75 87 99 88 79 61 44 49 86 100 80 77 77 62 57 66 100 100 100 100 89 92 81 77 60 45 34 30 29 31 93 100 93 97 100 100 100 100 100 100
33 48 57 78 69 70 76 66 51 40 48 64 91 96 77 87 80 62 95 100 100 100 100 94 99 80 78 65 47 35 33 34 32 56 81 70 63 63 80 100 100 99 100
29 37 52 93 76 58 54 58 50 44 53 74 73 99 100 95 71 98 98 95 90 100 100 99 100 86 82 64 45 38 36 37 37 47 69 45 37 40 32 75 100 100 100
27 32 47 88 96 63 51 42 47 68 79 100 99 94 100 99 90 100 100 99 99 100 100 98 99 89 90 60 46 44 35 39 38 42 51 29 22 23 28 41 89 100 90
24 25 42 85 98 71 56 44 44 63 72 63 67 76 93 100 100 80 99 85 50 67 97 90 93 93 94 69 47 49 40 38 37 37 45 32 18 16 22 39 96 85 98
20 20 35 63 93 81 59 48 46 48 46 60 73 63 69 72 91 97 94 82 64 67 73 99 88 91 94 76 51 54 44 40 37 37 44 34 17 15 36 45 100 74 100
18 20 30 42 79 89 61 58 53 51 47 50 59 59 100 85 67 72 100 100 84 70 70 85 84 100 99 84 63 50 41 40 35 36 47 32 17 16 49 100 67 96 100
14 19 28 34 93 96 72 65 55 54 56 54 58 57 70 70 79 97 100 91 81 76 60 78 100 100 98 93 77 52 41 39 36 36 44 35 16 21 70 99 71 95 100
15 21 28 38 100 100 85 76 62 62 55 52 66 60 62 83 100 100 88 85 94 79 80 83 100 100 88 100 88 63 47 41 39 38 45 26 16 24 79 100 88 87 100
18 22 30 38 100 100 94 84 73 63 64 57 59 52 87 71 80 95 100 100 100 100 100 88 100 100 93 100 82 76 48 41 41 38 44 19 16 26 70 100 76 100 100
17 22 34 38 88 100 100 100 77 68 64 64 57 63 80 100 94 99 100 100 100 100 100 100 100 100 100 96 81 74 50 46 44 38 39 16 19 34 86 91 98 100 100